Tracking 23610 objects as of 20-Sep-2021
HD Live streaming from Space Station
objects crossing your sky now

STARLINK-2502

Track STARLINK-2502 now!
10-day predictions
STARLINK-2502 is classified as:


NORAD ID: 48327
Int'l Code: 2021-036BD
Perigee: 553.7 km
Apogee: 555.0 km
Inclination: 53.1 °
Period: 95.6 minutes
Semi major axis: 6925 km
RCS: Unknown
Launch date: April 29, 2021
Source: United States (US)
Launch site: AIR FORCE EASTERN TEST RANGE (AFETR)
aabbcc
Your satellite tracking list
Your tracking list is empty




NASA's NSSDC Master Catalog

Two Line Element Set (TLE):
1 48327U 21036BD  21262.62493540 -.00000465  00000-0 -12319-4 0  9999
2 48327  53.0544 228.2268 0000931  71.5782 288.5308 15.06393538 22045
Source of the keplerian elements: AFSPC